Location: ????????
(56.1167°N, 38.6333°E)
Time: 11:42:00
(UTC+00:00)

Okean 1 Rocket - Pass Details

Date: 18 November 2025
Orbit: 599 x 628 km, 82.5° (Epoch: 10 December)

Event Time Altitude Azimuth Distance (km) Brightness Sun altitude
Rises 16:25:41 0° 199° (SSW) 2,889 6.7 -26.4°
Reaches altitude 10° 16:27:56 10° 203° (SSW) 1,983 5.8 -26.7°
Enters shadow 16:31:19 49° 229° (SW) 805 3.8 -27.2°
